Weather in Vol'ny

Russia / Oryol Oblast     52°48′48″N   37°49′55″E
temp.,
°C
wind,
m/s
gust,
m/s
humid.,
%
clouds,
%
prec.,
mm/h
press.,
hPa
HPBL,
m
17 april, sat
sat1700:00+9s22695 0.0 101816
03:00+7sse007388 0.0 101810
06:00+7nne3374100 0.0 101835
09:00+8wnw3377100 0.3 1018207
12:00+8wnw3387100 1.8 1018281
15:00+7sw2290100 3.8 1018321
18:00+7wsw3485100 0.1 1017517
21:00+6w1291100 0.1 101882
18 april, sun
sun1800:00+5wnw239390 0.0 101871
03:00+4ese229170 0.0 101812
06:00+4e2393100 0.1 101869
09:00+7sse348153 0.1 1018496
12:00+9sse3461100 1.1 10181314
15:00+11se3453100 1.8 10181371
18:00+10sse2454100 0.7 10181313
21:00+8s3580100 0.9 1018255
19 april, mon
mon1900:00+7e2689100 1.6 1018472
03:00+6e2692100 3.9 1018435
06:00+7ese4988100 1.6 1018637
09:00+7e6987100 4.0 1018778
12:00+10e4569100 0.3 10171204
15:00+8ene3480100 2.4 1017446
18:00+8ene4790100 2.9 1017561
21:00+6e7109288 3.7 1018534
20 april, tue
tue2000:00+6e61194100 0.3 1017592
03:00+6e6119399 0.5 1017493
06:00+6e51195100 0.0 1016386
09:00+7e81390100 0.3 1015554
12:00+8e81388100 0.2 1015700
15:00+6ene91691100 0.4 1012793
18:00+5ene111993100 8.6 1007863
21:00+6e132492100 14.6 10021353
21 april, wed
wed2100:00+8ese101796100 4.3 999872
03:00+9se81491100 5.9 999834
06:00+8se91592100 1.0 9981023
09:00+4s91395100 1.9 10011016
12:00+4sw101494100 0.3 10051083
15:00+6sw91483100 0.4 10091220
18:00+6sw71284100 0.1 1013894
21:00+6ssw51085100 0.1 1016374